Flag for Canada Weather past 2 weeks in Burnaby, British Columbia, Canada

Now
59 °F

Mostly cloudy.


Feels Like: 58 °F
Forecast: 46 / 54 °F
Wind: 6 mph from Southeast

Location: Vancouver International Air-Port

Current Time: Mar 27, 2015 at 6:53:44 PM

Latest Report: Mar 27, 2015 at 6:00 PM


Visibility: 20 mi

Pressure: 29.88 "Hg

Humidity: 72%

Dew point: 50 °F

Location of BurnabyLocation

Historic Weather in Burnaby — Graph

°F

Burnaby temperature yesterday

Maximum temperature yesterday: 63 °F (at 2:00 PM)
Minimum temperature yesterday: 52 °F (at 12:00 AM)
Average temperature yesterday: 55 °F

Past Weeks' High & Low Weather Summary

 TemperatureHumidityPressure
High63 °F (Mar 12, 5:00 PM)100% (Mar 13, 5:00 AM)30.39 "Hg (Mar 13, 5:00 AM)
Low37 °F (Mar 16, 7:00 AM)51% (Mar 18, 5:00 PM)29.65 "Hg (Mar 14, 10:00 AM)
Average49 °F86%30.06 "Hg
* Reported Mar 12 5:00 PM — Mar 27 5:00 PM, Burnaby, Weather by CustomWeather, © 2015

Note: Actual official high and low records may vary slightly from our data, if they occured in-between our weather recording intervals... More about our weather records

Advertising

Burnaby weather history for previous 24 hours

 ConditionsComfort  
Time TempWeatherWind HumidityBarometerVisibility
5:00 PM
Fri, Mar 27
59 °FCloudy.6 mph77%29.90 "Hg20 mi
4:00 PM59 °FPartly sunny.7 mph72%29.91 "Hg20 mi
3:00 PM61 °FPartly sunny.10 mph72%29.93 "Hg20 mi
2:00 PM61 °FBroken clouds.13 mph72%29.96 "Hg20 mi
1:00 PM59 °FMostly cloudy.10 mph72%29.98 "Hg20 mi
12:00 PM57 °FBroken clouds.12 mph77%29.99 "Hg20 mi
11:00 AM55 °FBroken clouds.8 mph82%30.00 "Hg20 mi
10:00 AM54 °FBroken clouds.5 mph82%30.01 "Hg20 mi
9:00 AM52 °FPartly sunny.3 mph88%30.01 "Hg20 mi
8:00 AM48 °FPartly sunny.6 mph100%30.00 "Hg20 mi
7:00 AM50 °FPartly cloudy.2 mph88%30.02 "Hg30 mi
6:00 AM46 °FMostly cloudy.2 mph100%30.03 "Hg30 mi
5:00 AM48 °FMostly cloudy.2 mph100%30.04 "Hg30 mi
4:00 AM48 °FPassing clouds.5 mph94%30.06 "Hg30 mi
3:00 AM48 °FPassing clouds.8 mph100%30.08 "Hg30 mi
2:00 AM50 °FPassing clouds.6 mph94%30.11 "Hg30 mi
1:00 AM52 °FPartly cloudy.7 mph94%30.12 "Hg30 mi
12:00 AM54 °FPassing clouds.5 mph82%30.14 "Hg30 mi
11:00 PM
Thu, Mar 26
54 °FPartly cloudy.6 mph88%30.14 "Hg30 mi
10:00 PM55 °FPartly cloudy.2 mph82%30.16 "Hg30 mi
9:00 PM55 °FPassing clouds.2 mph82%30.15 "Hg30 mi
8:00 PM55 °FBroken clouds.No wind82%30.15 "Hg30 mi
7:00 PM55 °FPartly sunny.3 mph88%30.16 "Hg30 mi
6:00 PM59 °FBroken clouds.6 mph77%30.16 "Hg30 mi
Weather by CustomWeather, © 2015

See weather overviewHow to use our weather pages